RH
33 21 7 4 4 2 2 2 2 2 2 2 2 2 2 2 3 5 8 7 8 12 17 28 30 38 34 24 39 34 36 34 33 27 31 43 50 70 100 100 100 100 97 85 96 89 81
30 18 6 5 4 3 2 2 2 2 2 2 2 2 2 2 2 3 7 10 9 10 15 23 36 43 42 35 38 31 33 46 43 34 40 46 37 45 52 42 69 100 100 100 100 99 99
31 18 6 4 4 3 2 2 2 1 1 1 1 2 2 2 2 2 4 10 12 8 15 36 42 44 42 43 38 40 43 54 58 61 49 54 45 42 34 29 26 45 79 84 86 96 100
29 21 8 4 5 3 3 2 2 1 1 1 2 2 2 2 2 2 4 9 13 10 12 26 37 49 51 37 31 37 36 49 71 59 77 80 56 54 49 42 31 22 19 17 17 26 32
20 25 15 6 5 4 3 3 2 1 1 1 2 2 2 2 2 2 4 10 17 13 12 18 40 48 41 29 31 39 44 51 62 81 100 100 96 87 81 83 64 43 34 22 17 14 16
21 27 21 10 6 5 4 3 3 2 1 1 1 1 2 2 2 2 2 8 17 16 13 17 30 36 30 25 25 35 47 61 77 100 100 100 100 100 95 88 71 68 54 44 33 27 20
24 22 25 17 10 6 5 4 3 2 2 2 1 2 2 2 2 2 3 8 16 16 14 18 18 28 29 23 24 37 47 57 74 79 84 98 100 94 87 90 82 76 61 45 40 47 33
25 27 27 23 13 9 6 4 4 4 2 2 2 2 2 2 3 3 4 9 19 20 15 14 17 22 18 22 30 37 46 59 70 71 84 88 91 94 88 79 75 69 64 68 59 49 44
29 31 27 28 23 15 11 7 6 6 5 3 3 3 3 4 4 5 6 11 17 16 16 16 18 20 22 27 33 38 48 63 61 54 52 58 80 78 70 62 60 52 52 51 53 53 47
23 29 29 26 28 25 17 11 7 7 7 6 5 4 5 8 10 11 12 16 18 16 16 19 21 24 27 31 35 43 55 63 65 60 55 57 55 57 64 67 62 52 52 52 56 48 43
27 26 28 30 28 29 25 20 14 7 9 8 8 6 5 7 14 14 16 17 20 19 19 21 24 26 28 31 37 45 50 59 62 59 58 54 49 46 43 43 43 44 41 33 28 33 40
23 26 27 29 29 30 32 28 24 17 9 10 10 10 8 8 9 12 18 17 21 24 24 26 29 32 35 37 40 42 44 46 48 45 43 41 41 40 40 38 38 36 33 33 35 41 39
28 28 23 27 32 31 31 38 34 31 21 13 10 12 9 10 11 10 9 13 13 18 24 26 28 32 34 36 37 38 39 40 43 41 35 29 24 31 32 24 24 21 18 20 21 19 16
31 32 24 23 30 34 32 32 42 40 39 26 24 16 12 12 13 10 11 13 13 13 13 14 15 16 17 18 19 20 19 19 20 20 18 18 19 16 14 14 15 14 12 12 13 16 24
46 34 31 22 26 27 32 35 33 40 46 43 40 31 30 23 17 15 14 13 14 15 14 14 15 15 15 16 14 15 14 14 13 13 12 11 12 12 14 13 15 18 20 19 14 13 19
64 39 40 26 25 23 28 32 35 36 37 39 45 52 41 39 39 38 34 36 31 26 24 22 22 19 18 17 15 14 13 13 13 13 13 14 13 14 14 12 12 13 15 14 14 16 16
70 46 44 39 22 21 21 25 36 37 34 36 41 52 54 48 46 44 59 60 58 56 55 54 54 54 50 46 42 40 37 34 30 27 24 21 19 18 18 16 18 19 18 20 23 23 17
71 63 45 40 35 25 21 20 23 30 39 40 33 37 35 35 35 48 48 48 47 48 50 54 57 60 62 62 62 63 65 62 60 57 57 52 47 39 32 29 29 27 24 24 25 26 26
57 79 49 40 44 36 36 26 19 18 21 22 38 37 35 36 35 34 35 37 36 36 38 39 38 38 39 42 44 47 48 48 51 53 55 57 57 61 59 55 54 51 45 42 39 35 30
100 63 78 45 39 47 31 43 26 26 22 19 19 22 37 34 34 34 34 36 34 31 31 34 38 39 36 35 33 32 34 38 43 49 53 56 60 60 62 66 65 66 64 60 55 50 47
100 78 64 39 45 38 42 40 35 30 29 31 26 22 18 22 29 28 26 26 29 32 34 39 40 43 50 51 53 52 50 46 45 45 39 36 38 48 53 53 54 56 58 63 65 65 61
56 95 74 63 42 38 42 42 44 43 38 28 42 35 33 25 18 18 22 21 20 29 30 33 30 32 34 38 42 51 52 57 64 66 62 60 54 42 32 31 40 52 54 51 53 55 58
70 74 86 83 52 54 55 44 35 62 54 37 38 44 48 38 35 29 23 24 33 30 28 28 32 39 38 31 30 31 35 41 44 52 57 61 63 66 66 63 53 42 36 39 49 53 53
98 69 63 94 73 54 34 70 47 39 80 52 44 37 47 52 52 50 39 32 32 29 32 32 30 38 46 47 42 40 36 38 48 55 60 64 66 65 69 82 84 62 56 47 37 29 46
100 100 81 92 100 82 46 64 85 54 46 59 45 59 50 55 63 73 61 46 43 45 43 41 41 41 46 53 55 51 49 51 53 53 63 68 66 68 79 75 72 79 84 67 54 55 39
84 90 100 97 100 100 83 60 67 94 78 55 57 42 45 55 74 81 91 83 68 58 52 48 47 54 58 60 64 62 56 48 51 56 55 49 58 66 74 87 84 72 80 86 75 64 50
100 100 88 100 92 100 100 94 71 84 96 93 87 76 41 52 55 79 75 87 82 86 83 77 62 50 45 52 57 61 55 59 54 54 45 55 66 72 80 81 88 90 74 73 71 76 71
100 100 100 100 100 79 100 100 100 72 98 100 42 100 99 74 68 42 85 92 96 90 81 83 89 79 65 60 65 81 65 76 66 64 72 76 72 77 69 74 76 86 92 87 78 70 70
100 100 100 100 100 100 94 100 100 98 64 100 97 100 87 62 87 97 48 70 84 100 99 77 81 80 86 79 74 85 87 69 86 84 82 70 73 65 60 56 57 65 66 78 76 73 70
Wind_Speed
74 82 77 69 70 64 53 36 29 30 27 21 28 38 44 51 54 59 60 65 74 78 79 86 85 85 87 105 106 100 93 89 86 82 83 83 83 85 88 92 94 97 96 95 94 91 90
78 86 80 77 71 64 56 41 34 26 22 18 13 22 33 37 44 50 54 59 66 73 75 80 84 87 85 85 105 103 97 93 88 84 80 77 80 79 80 81 84 92 92 88 93 95 95
82 88 84 76 75 68 64 52 42 31 22 14 9 14 26 32 35 40 49 55 56 62 77 88 90 91 86 84 82 97 101 94 89 85 80 78 79 76 75 73 74 78 85 89 89 88 89
85 90 91 80 75 68 62 58 46 36 29 18 6 4 18 25 27 34 46 53 50 55 67 85 89 92 94 88 72 68 77 92 93 85 83 80 79 74 73 71 71 73 74 75 80 81 80
88 92 96 90 83 76 66 63 51 40 34 24 13 8 10 19 26 38 47 54 53 52 62 75 94 98 95 77 64 59 60 66 79 86 82 80 79 77 74 73 72 72 70 71 71 71 71
105 94 98 97 92 84 71 66 62 48 38 33 25 18 13 13 22 35 43 52 54 52 55 66 84 94 82 70 55 53 56 58 64 81 84 83 80 79 79 77 75 74 73 74 72 71 72
114 99 96 102 100 90 82 72 69 59 46 40 36 30 25 21 23 31 35 46 51 50 58 66 63 77 80 64 45 44 46 53 53 66 83 82 79 78 80 79 78 77 76 75 75 74 75
114 110 96 101 104 101 92 84 77 69 62 50 45 41 34 28 25 28 37 49 49 46 44 49 58 69 63 51 38 43 47 52 53 53 68 77 78 78 80 80 79 79 80 80 79 77 77
112 113 103 96 103 104 104 93 83 77 70 62 54 50 47 37 31 28 33 38 36 39 41 48 55 57 46 41 40 43 48 47 45 43 49 57 67 78 81 79 80 81 83 84 83 82 82
110 107 111 102 96 103 104 102 92 86 77 70 64 55 47 43 33 28 29 27 27 29 33 35 35 35 35 39 41 41 42 42 40 39 40 42 46 53 61 64 68 72 75 77 79 82 83
104 108 107 103 95 95 101 105 103 91 87 77 70 62 56 42 33 26 24 25 27 29 31 34 33 33 33 34 35 35 35 36 37 40 42 44 47 51 55 59 62 63 65 68 68 70 71
97 104 108 107 105 92 92 98 103 102 93 86 76 69 62 58 52 34 24 23 24 24 23 25 26 26 27 28 28 28 31 33 35 38 40 41 43 44 46 49 52 54 56 56 55 57 58
91 95 101 109 100 100 89 90 95 99 100 96 86 78 68 64 60 56 46 35 30 29 21 18 16 14 17 16 18 21 23 26 29 30 31 33 33 36 39 42 43 44 44 44 44 43 43
83 87 92 98 106 97 100 87 86 89 93 96 96 90 82 74 68 60 55 50 48 42 37 30 25 21 17 13 10 11 13 16 19 23 23 26 28 29 29 29 29 30 30 31 33 32 33
75 79 84 90 95 102 105 94 87 81 81 85 88 89 91 90 85 77 70 62 57 51 46 41 36 29 24 19 14 10 6 5 7 9 11 12 13 12 14 15 16 18 21 22 22 23 24
68 72 74 83 85 92 94 101 91 86 78 74 78 79 76 80 83 84 86 85 81 78 74 70 66 61 55 49 43 35 29 24 19 14 9 5 4 3 0 1 3 6 7 9 13 15 14
62 64 67 73 78 82 86 91 94 94 95 85 77 72 69 69 68 74 76 73 72 71 71 69 67 64 61 59 58 57 55 53 50 46 41 36 31 25 21 18 16 15 16 13 9 7 5
56 57 62 62 69 72 79 80 85 87 91 91 84 75 69 63 64 67 63 62 61 60 60 59 58 57 56 55 54 52 51 50 49 48 47 45 43 40 38 36 36 35 32 29 26 24 20
50 51 56 57 58 64 66 72 74 76 81 85 87 86 79 75 72 68 66 62 60 57 57 58 59 57 55 53 50 48 46 45 45 44 42 40 39 37 35 34 33 33 31 30 29 27 26
35 46 46 52 49 54 60 61 68 68 71 75 75 79 80 83 87 87 84 75 69 68 68 69 70 70 70 69 62 57 51 46 41 38 36 34 33 31 30 28 27 27 27 26 25 23 22
35 39 41 46 44 44 52 54 59 61 63 65 70 71 74 75 75 76 80 79 78 82 82 82 80 77 75 78 75 72 70 69 68 62 50 40 33 27 24 23 22 22 22 22 23 25 24
31 33 36 36 41 37 44 48 49 50 55 59 59 62 63 67 69 69 71 74 74 74 76 75 76 74 75 73 74 74 71 70 69 66 62 61 54 47 39 30 24 20 19 18 18 19 22
27 27 29 32 36 35 37 39 44 42 46 48 51 53 55 57 61 63 66 68 66 67 70 70 68 66 66 68 69 67 67 65 66 66 66 67 64 57 54 53 48 40 31 25 22 21 18
26 24 25 26 27 31 37 30 35 38 38 42 43 45 47 49 48 50 55 58 59 59 59 61 63 61 61 60 62 62 63 62 61 58 62 64 62 61 61 59 56 50 45 42 36 31 24
21 24 24 26 18 29 28 28 25 32 30 35 38 38 38 42 41 41 45 49 50 52 53 53 53 54 54 54 53 55 55 55 57 56 56 58 59 60 58 58 56 52 52 47 40 40 36
19 18 22 21 23 26 18 28 24 21 24 27 31 34 35 36 36 34 35 37 42 44 45 48 47 47 46 48 49 49 52 54 53 53 55 58 57 59 58 56 53 51 50 51 49 42 37
27 16 18 17 17 24 18 24 26 20 17 19 27 26 29 31 35 32 30 30 32 33 35 39 42 45 45 44 46 46 48 48 50 52 54 55 56 55 54 55 53 54 52 49 47 47 45
28 22 19 18 16 16 23 22 29 22 18 15 27 24 24 28 29 33 30 28 27 29 29 31 31 34 38 39 40 41 45 45 46 48 47 48 50 52 54 55 56 55 55 56 51 48 45
40 37 33 28 25 26 17 24 29 20 16 16 25 20 22 25 27 28 31 25 27 26 25 29 28 29 31 34 35 38 39 42 41 42 43 44 46 48 51 55 56 56 58 57 56 53 50
Wind_Direction
2 356 349 350 348 349 346 339 331 320 304 280 256 247 241 238 237 231 225 223 224 223 226 228 231 232 235 227 231 230 231 233 236 238 239 241 243 243 243 245 246 247 250 253 254 257 258
5 2 1 2 357 358 360 2 359 344 326 313 269 240 236 233 229 223 219 219 222 217 221 226 227 230 232 230 227 230 231 233 234 235 238 241 245 246 246 248 248 245 245 248 250 253 255
9 8 10 10 6 6 8 13 8 5 1 340 292 216 215 220 214 212 212 212 214 210 215 221 222 227 229 231 227 227 230 231 233 235 237 239 244 246 248 250 250 249 249 249 251 252 254
14 14 15 17 16 14 15 17 18 20 23 24 42 182 208 211 205 195 199 204 205 207 206 217 221 224 226 229 222 226 229 231 232 234 235 238 241 244 247 249 251 253 253 254 253 253 255
19 17 20 23 22 23 22 25 27 30 35 37 55 88 154 187 190 183 189 191 196 200 201 204 215 224 227 225 221 223 227 230 231 231 232 237 241 243 245 249 252 255 256 257 259 259 259
22 19 23 26 28 28 29 31 30 33 45 48 53 69 94 145 173 181 182 183 189 194 194 203 211 221 227 222 210 214 222 229 233 231 232 234 239 243 245 249 253 256 259 262 263 264 265
23 22 25 28 32 33 34 37 40 40 45 58 64 74 90 115 146 169 169 175 183 189 191 200 207 217 223 223 207 207 217 227 236 235 231 232 237 242 247 249 253 257 259 263 264 264 265
23 24 25 30 33 36 37 41 44 45 47 56 65 72 78 95 117 143 159 169 179 187 192 198 204 214 220 221 197 207 216 227 232 234 233 235 239 244 247 250 253 256 259 261 263 265 266
26 27 27 29 33 38 40 41 46 49 50 56 61 69 74 79 96 123 147 166 174 177 180 191 198 210 210 210 207 207 222 226 229 235 239 239 240 243 245 249 253 256 258 260 261 263 266
26 27 27 28 34 38 41 43 45 52 53 57 61 65 73 86 95 117 139 150 157 168 176 178 192 204 201 202 206 208 215 221 227 233 235 239 241 244 247 252 256 258 260 261 263 265 268
27 28 31 29 32 38 42 45 45 48 54 57 61 66 75 79 92 109 119 129 140 151 165 171 178 188 196 200 206 212 216 222 229 235 243 249 252 254 256 257 260 263 264 265 267 267 270
27 32 34 34 32 35 42 45 48 49 52 57 61 66 72 79 81 88 97 109 122 131 148 157 167 174 183 192 205 218 226 232 237 245 250 252 256 259 261 262 263 262 261 261 262 262 267
29 31 32 34 36 35 38 45 48 52 53 55 58 64 68 72 76 80 90 103 97 107 110 130 142 153 172 185 204 218 231 241 247 249 252 253 253 255 256 256 258 261 266 266 269 270 269
28 31 33 35 39 40 39 41 47 51 53 57 59 60 64 67 71 75 78 83 89 92 98 103 110 115 124 135 161 190 211 228 238 245 250 254 254 257 260 261 263 262 264 266 266 268 267
29 31 34 36 39 40 41 42 42 48 54 56 59 61 63 68 70 71 73 75 77 79 82 85 86 89 91 98 102 114 134 172 217 229 237 239 251 261 267 266 265 265 268 267 266 264 264
29 32 33 35 36 39 43 43 46 48 50 54 60 62 61 66 69 71 73 73 74 76 78 78 78 79 79 78 77 78 78 77 76 75 77 69 61 25 312 299 281 293 287 280 270 266 270
28 33 34 34 36 36 40 46 48 50 51 52 58 61 62 62 67 70 70 71 72 74 75 76 76 77 77 77 77 76 76 75 74 74 73 74 73 73 73 71 72 76 68 65 56 25 17
27 33 34 34 36 36 36 42 46 50 50 53 55 59 60 62 64 70 71 73 75 76 77 77 77 77 75 74 73 71 68 65 63 61 59 58 58 57 56 54 53 52 52 50 45 42 34
28 32 33 35 35 35 36 37 41 45 47 50 54 57 61 62 65 67 70 74 76 76 75 74 73 72 71 70 69 68 66 63 62 59 57 53 50 48 44 42 38 34 34 35 33 32 33
20 26 31 32 34 36 34 36 35 38 42 46 48 54 57 61 65 68 66 70 72 73 73 73 73 72 71 69 68 68 65 63 60 59 58 56 54 51 45 40 35 29 24 22 20 18 18
18 17 24 29 34 35 33 34 35 35 37 40 43 49 53 53 58 57 57 61 62 65 67 70 72 72 69 66 66 67 65 64 62 59 56 52 47 43 43 42 38 32 27 19 11 6 2
16 13 20 25 32 32 30 30 31 36 34 33 39 40 43 44 48 47 49 52 53 54 57 60 61 63 63 62 61 63 64 62 61 58 56 54 49 46 41 34 24 17 12 13 12 7 3
9 14 12 16 28 30 20 26 30 31 32 32 33 37 38 38 42 44 43 46 48 49 49 50 53 54 55 57 56 56 55 53 53 52 51 51 51 48 44 43 37 28 16 1 351 346 346
351 3 4 5 14 12 19 13 27 31 28 26 28 30 32 34 37 42 43 41 41 42 43 46 45 46 48 50 49 50 48 48 48 47 44 44 42 40 39 39 34 32 28 24 12 359 340
342 351 4 356 344 356 14 15 8 22 29 25 20 22 24 27 30 33 35 35 35 37 37 39 40 41 42 42 45 44 43 43 41 41 40 38 36 36 33 31 30 31 27 22 17 14 359
322 337 336 342 340 340 356 2 7 359 11 19 18 16 19 19 22 26 28 30 29 28 30 31 33 32 35 36 38 37 35 33 33 36 35 33 31 29 28 27 26 26 24 22 21 14 7
301 316 319 322 331 332 322 342 349 351 347 4 8 8 9 13 14 15 17 20 23 25 25 24 23 24 25 27 28 27 28 28 27 28 28 27 24 22 21 20 22 23 21 17 16 14 13
285 289 288 305 296 307 319 304 329 337 331 332 352 346 354 353 3 4 6 6 8 11 18 19 16 13 16 19 20 21 20 21 22 22 23 23 20 20 17 16 14 14 14 13 9 9 9
282 280 279 287 298 293 298 291 305 317 324 314 324 335 345 345 344 349 353 359 359 360 0 7 9 6 5 10 12 12 13 16 17 15 14 14 14 12 12 11 10 8 7 5 4 4 1